STARLINK-3839, 52480

Orbit data source: Space-Track

STARLINK-3839, 52480 is a payload satellite owned by SpaceX/Seattle (US) in LEO that was launched on Fri, 06 May 2022 UTC via an FALCON 9 launch vehicle from the Air Force Eastern Test Range (AFETR). Payload-class satellites include a variety of spacecraft equipped with specific instruments for various scientific and technological missions. These include communications satellites like Starlink; space stations such as the ISS; scientific satellites like the Hubble; Earth observation satellites from companies like Planet Labs, Umbra, and HawkEye 360; GPS; miniature CubeSats for education and research; and military/defense satellites.

Loading next visibility...
Identifier
52480, 2022-049AF
Orbit
LEO
Country
Flag of USUS
Related business
Manufacturer
SpaceX/Seattle
Mission
Operational Commercial Communications
Bus & Motor
STARLINK, Unknown motor
Mass
297 kg wet, ~220 kg dry
Launch date (UTC)
2022-05-06 (4 years ago)
Launch vehicle
FALCON 9
Launch site
Air Force Eastern Test Range (AFETR)
Object type
Payload
Rocket body
Debris
Shape & HBR
Box + 1 Pan, 10.1 m
Radar Cross Section
13.562 m², Large (>1 m²)

Expand to show TLE details & history
Last TLE update: 7 hours ago

TLE from 7 hours ago
0 STARLINK-3839
1 52480U 22049AF  26220.16668980  .00032717  00000-0  94510-3 0  9994
2 52480  53.1595  96.2152 0001461  83.2302  18.9754 15.35387978  5739
Epoch: 2026-08-08T04:00Z
TLE epoch observation values (Epoch: 2026-08-08T04:00:01.998Z)
Latitude
51.61369°
Longitude
-170.60737°
Altitude
465.01 km
Speed
7.641 km/s
True Right ascension
13h 44m 19s
True Declination
51° 26' 20"
Sunlit
Object was in daylight at epoch
Visualization orbit readout
Latitude
Unknown
Longitude
Unknown
Altitude
Unknown
Speed
Unknown
Apparent Right ascension
Unknown
Apparent Declination
Unknown
Sunlit
N/A
Visualization observer readout
Local Sidereal Time
00:37:53
Azimuth
Unknown
Elevation
Unknown
Doppler factor
Unknown
Orbital elements
Apogee altitude
461.024 km
Perigee altitude
459.026 km
Semi-major axis
6,838.162 km
Eccentricity
0.00015
Inclination
53.1595°
RAAN
96.2152°
Arg. of periapsis
83.2302°
True anomaly
18.98084°
Mean anomaly
18.9754°
Eccentric anomaly
18.97812°
Mean motion
3.83826 °/min
Orbital period
93.79 mins
BSTAR
0.0009451
Loading maneuver chart data...
Computing Atmospheric mass density...
Loading historical data...
Loading historical data...
Loading historical data...
Loading historical data...
Loading historical data...
Loading historical data...
Loading historical data...

Documentation

Showing up to 5 results
|